Akron, CO

7:13 AM MDT on July 21, 2017 (GMT -0600)
Akron-Washington County

Weather History for KAKO - October, 2012

Change the Weather History Date:

Tuesday, October 2, 2012

  Actual Average Record
Temperature  
Mean Temperature 65 °F 56 °F  
Max Temperature 83 °F 69 °F 91 °F (1954)
Min Temperature 46 °F 42 °F 29 °F (1959)
Degree Days  
Heating Degree Days 0    
Month to date heating degree days 9  
Cooling Degree Days 0    
Month to date cooling degree days 0  
Growing Degree Days 14 (Base 50)    
Moisture  
Dew Point 32 °F    
Average Humidity 37    
Maximum Humidity 61    
Minimum Humidity 12    
Precipitation  
Precipitation 0.00 in 0.04 in 0.24 in (1983)
Month to date precipitation T 0.08  
Year to date precipitation 7.10 14.73  
Sea Level Pressure  
Sea Level Pressure 29.85 in    
Wind  
Wind Speed 10 mph (SW)    
Max Wind Speed 20 mph    
Max Gust Speed 24 mph    
Visibility 10 miles    
Events      
T = Trace of Precipitation, MM = Missing Value Source: NWS Daily Summary

Daily Weather History Graph

Daily Weather History Graph

Search for Another Location

Airport or City:

Trip Planner

Search our weather history database for the weather conditions in past years. The results will help you decide how hot, cold, wet, or windy it might be!

Date:

Astronomy

Oct. 02, 2012 Rise Set
Actual Time 6:50 AM MDT 6:32 PM MDT
Civil Twilight 6:23 AM MDT 6:59 PM MDT
Nautical Twilight 5:52 AM MDT 7:31 PM MDT
Astronomical Twilight 5:20 AM MDT 8:02 PM MDT
Moon 7:46 PM MDT (10/2) 9:20 AM MDT (10/2)
Length of Visible Light 12h 36m
Length of Day
11h 41m
Waning Gibbous, 94% of the Moon is Illuminated
Oct 2
Waning Gibbous
Oct 8
Last Quarter
Oct 15
New
Oct 21
First Quarter
Oct 29
Full

Hourly Weather History & Observations

Time (MDT) Temp. Windchill Dew Point Humidity Pressure Visibility Wind Dir Wind Speed Gust Speed Precip Events Conditions
12:53 AM 46.9 °F - 32.0 °F 56% 30.08 in 10.0 mi South 9.2 mph - N/A   Clear
1:53 AM 46.0 °F 41.0 °F 32.0 °F 58% 30.05 in 10.0 mi South 10.4 mph - N/A   Clear
2:53 AM 46.0 °F 41.0 °F 32.0 °F 58% 30.02 in 10.0 mi SSW 10.4 mph - N/A   Clear
3:53 AM 46.9 °F - 34.0 °F 61% 29.99 in 10.0 mi SSW 10.4 mph - N/A   Clear
5:53 AM 48.9 °F - 36.0 °F 61% 29.94 in 10.0 mi SSW 13.8 mph - N/A   Clear
6:53 AM 48.0 °F - 36.0 °F 63% 29.96 in 10.0 mi SW 11.5 mph - N/A   Clear
7:53 AM 52.0 °F - 37.0 °F 57% 29.95 in 10.0 mi SW 12.7 mph - N/A   Clear
8:53 AM 59.0 °F - 37.9 °F 46% 29.93 in 10.0 mi West 12.7 mph - N/A   Clear
9:53 AM 64.9 °F - 37.0 °F 36% 29.91 in 10.0 mi West 11.5 mph - N/A   Clear
10:53 AM 69.1 °F - 37.0 °F 31% 29.89 in 10.0 mi West 5.8 mph - N/A   Clear
11:53 AM 77.0 °F - 30.9 °F 19% 29.85 in 10.0 mi WNW 10.4 mph 19.6 mph N/A   Clear
12:53 PM 77.0 °F - 28.9 °F 17% 29.82 in 10.0 mi NW 5.8 mph - N/A   Clear
1:53 PM 80.1 °F - 30.0 °F 16% 29.79 in 10.0 mi West 6.9 mph 16.1 mph N/A   Clear
2:53 PM 82.0 °F - 24.1 °F 12% 29.75 in 10.0 mi West 11.5 mph 18.4 mph N/A   Clear
3:53 PM 82.0 °F - 28.0 °F 14% 29.73 in 10.0 mi West 13.8 mph 18.4 mph N/A   Clear
4:53 PM 82.9 °F - 28.0 °F 14% 29.72 in 10.0 mi WNW 6.9 mph - N/A   Clear
5:53 PM 80.1 °F - 28.0 °F 15% 29.72 in 10.0 mi SSW 6.9 mph - N/A   Clear
6:53 PM 70.0 °F - 28.0 °F 21% 29.75 in 10.0 mi SSW 6.9 mph - N/A   Clear
7:53 PM 64.9 °F - 28.9 °F 26% 29.75 in 10.0 mi SSW 9.2 mph - N/A   Clear
8:53 PM 66.0 °F - 26.1 °F 22% 29.73 in 10.0 mi SSW 10.4 mph - N/A   Clear
9:53 PM 64.0 °F - 30.9 °F 29% 29.73 in 10.0 mi SSW 12.7 mph - N/A   Clear
10:53 PM 64.9 °F - 32.0 °F 29% 29.73 in 10.0 mi SW 17.3 mph - N/A   Clear
11:53 PM 62.1 °F - 32.0 °F 32% 29.71 in 10.0 mi SW 17.3 mph - N/A   Clear